ORBCOMM FM14 [+]

Last updated on Sat May 13 2023 00:03:01 GMT+0000 (Coordinated Universal Time)

1 25419U 98046G 23132.36203345 .00001525 00000+0 58492-3 0 9998 2 25419 44.9965 203.1120 0000910 312.6523 172.8016 14.34545486293958
UTC large
Height (km)
Speed (km/s)
/
Latitude / Longitude
Inclination (degrees)
Orbital Period (minutes)
Azimuth
Elevation
Range (km)
Doppler Factor

Next 0 passes for location: London (51.5072 / 0.1276)

Sorry there are no passes over London.